This is the latest recevied weather packets stored in our database for station/object W8KHW. If no packets are shown the sender has not sent any weather packets the latest 10 day(s).
| Time | Temp. | Humidity | Pressure | Rain* | Wind** | Luminosity | Snow |
|---|---|---|---|---|---|---|---|
| 1777997000 | 22.22° C | 60% | 1009.4 hPa | 0 mm | - | - | - |
| 1777996500 | 22.22° C | 63% | 1009.6 hPa | 0 mm | - | - | - |
| 1777996000 | 21.67° C | 62% | 1009.7 hPa | 0 mm | - | - | - |
| 1777995500 | 21.11° C | 61% | 1009.4 hPa | 0 mm | - | - | - |
| 1777994999 | 21.67° C | 62% | 1009.4 hPa | 0 mm | - | - | - |
| 1777994499 | 20.56° C | 65% | 1009.2 hPa | 0 mm | - | - | - |
| 1777993999 | 20.56° C | 67% | 1009.2 hPa | 0 mm | - | - | - |
| 1777993499 | 19.44° C | 70% | 1009.2 hPa | 0 mm | - | - | - |
| 1777992999 | 19.44° C | 68% | 1008.9 hPa | 0 mm | - | - | - |
| 1777992498 | 19.44° C | 71% | 1009.1 hPa | 0 mm | - | - | - |
| 1777991998 | 19.44° C | 73% | 1009 hPa | 0 mm | - | - | - |
| 1777991498 | 18.33° C | 74% | 1008.5 hPa | 0 mm | - | - | - |
| 1777990998 | 18.89° C | 75% | 1008.7 hPa | 0 mm | - | - | - |
| 1777990497 | 18.33° C | 76% | 1008.7 hPa | 0 mm | - | - | - |
| 1777989997 | 17.78° C | 78% | 1008.5 hPa | 0 mm | - | - | - |
| 1777989497 | 17.78° C | 78% | 1008.9 hPa | 0 mm | - | - | - |
| 1777988997 | 17.78° C | 77% | 1008.9 hPa | 0 mm | - | - | - |
| 1777988497 | 17.78° C | 76% | 1008.7 hPa | 0 mm | - | - | - |
| 1777987996 | 17.78° C | 78% | 1008.5 hPa | 0 mm | - | - | - |
| 1777987496 | 17.78° C | 78% | 1008.3 hPa | 0 mm | - | - | - |
| 1777986996 | 17.22° C | 81% | 1008.7 hPa | 0 mm | - | - | - |
| 1777986496 | 16.67° C | 82% | 1008.3 hPa | 0 mm | - | - | - |
| 1777985995 | 16.11° C | 82% | 1009 hPa | 0 mm | - | - | - |
| 1777985495 | 16.11° C | 82% | 1008.9 hPa | 0 mm | - | - | - |
| 1777984995 | 15.56° C | 83% | 1008.5 hPa | 0 mm | - | - | - |
* Rain latest hour (hover to see other rain measurements)
** Current wind speed in m/s (hover to see current wind gust speed)